SCP
0 0 0 0 0 0 0 0 0 0 0 0 0 0 0 0 0 0 0 0 0 0 0 0 0 0 0 0 0 0 0 0 0 0 0 0 0 0 0 0 0 0 0 0
0 0 0 0 0 0 0 0 0 0 0 0 0 0 0 0 0 0 0 0 0 0 0 0 0 0 0 0 0 0 0 0 0 0 0 0 0 0 0 0 0 0 0 0
0 0 0 0 0 0 0 0 0 0 0 0 0 0 0 0 0 0 0 0 0 0 0 0 0 0 0 0 0 0 0 0 0 0 0 0 0 0 0 0 0 0 0 0
0 0 0 0 0 0 0 0 0 0 0 0 0 0 0 0 0 0 0 0 0 0 0 0 0 0 0 0 0 0 0 0 0 0 0 0 0 0 0 0 0 0 0 0
0 0 0 0 0 0 0 0 0 0 0 0 0 0 0 0 0 0 0 0 0 0 0 0 0 0 0 0 0 0 0 0 0 0 0 0 0 0 0 0 0 0 0 0
0 0 0 0 0 0 0 0 0 0 0 0 0 0 0 0 0 0 0 0 0 0 0 0 0 0 0 0 0 0 0 0 0 0 0 0 0 0 0 0 0 0 0 0
0 0 0 0 0 0 0 0 0 0 0 0 0 0 0 0 0 0 0 0 0 0 0 0 0 0 0 0 0 0 0 0 0 0 0 0 0 0 0 0 0 0 0 0
0 0 0 0 0 0 0 0 0 0 0 0 0 0 0 0 0 0 0 0 0 0 0 0 0 0 0 0 0 0 0 0 0 0 0 0 0 0 0 0 0 0 0 0
0 0 0 0 0 0 0 0 0 0 0 0 0 0 0 0 0 0 0 0 0 0 0 0 0 0 0 0 0 0 0 0 0 0 0 0 0 0 0 0 0 0 0 0
0 0 0 0 0 0 0 0 0 0 0 0 0 0 0 0 0 0 0 0 0 0 0 0 0 0 0 0 0 0 0 0 0 0 0 0 0 0 0 0 0 0 0 0
0 0 0 0 0 0 0 0 0 0 0 0 0 0 0 0 0 0 0 0 0 0 0 0 0 0 0 0 0 0 0 0 0 0 0 0 0 0 0 0 0 0 0 0
0 0 0 0 0 0 0 0 0 0 0 0 0 0 0 0 0 0 0 0 0 0 0 0 0 0 0 0 0 0 0 0 0 0 0 0 0 0 0 0 0 0 0 0
0 0 0 0 0 0 0 0 0 0 0 0 0 0 0 0 0 0 0 0 0 0 0 0 0 0 0 0 0 0 0 0 0 0 0 0 0 0 0 0 0 0 0 0
0 0 0 0 0 0 0 0 0 0 0 0 0 0 0 0 0 0 0 0 0 0 0 0 0 0 0 0 0 0 0 0 0 0 0 0 0 0 0 0 0 0 0 0
0 0 0 0 0 0 0 0 0 0 0 0 0 0 0 0 0 0 0 0 0 0 0 0 0 0 0 0 0 0 0 0 0 0 0 0 0 0 0 0 0 0 0 0
0 0 0 0 0 0 0 0 0 0 0 0 0 0 0 0 0 0 0 0 0 0 0 0 0 0 0 0 0 0 0 0 0 0 0 0 0 0 0 0 0 0 0 0
0 0 0 0 0 0 0 0 0 0 0 0 0 0 0 0 0 0 0 0 0 0 0 0 0 0 0 0 0 0 0 0 0 0 0 0 0 0 0 0 0 0 0 0
0 0 0 0 0 0 0 0 0 0 0 0 0 0 0 0 0 0 0 0 0 0 0 0 0 0 0 0 0 0 0 0 0 0 0 0 0 0 0 0 0 0 0 0
0 0 0 0 0 0 0 0 0 0 0 0 0 0 0 0 0 0 0 0 0 0 0 0 0 0 0 0 0 0 0 0 0 0 0 0 0 0 0 0 0 0 0 0
0 0 0 0 0 0 0 0 0 0 0 0 0 0 0 0 0 0 0 0 0 0 0 0 0 0 0 0 0 0 0 0 0 0 0 0 0 0 0 0 0 0 0 0
0 0 0 0 0 0 0 0 0 0 0 0 0 0 0 0 0 0 0 0 0 0 0 0 0 0 0 0 0 0 0 0 0 0 0 0 0 0 0 0 0 0 0 0
0 0 0 0 0 0 0 0 0 0 0 0 0 0 0 0 0 0 0 0 0 0 0 0 0 0 0 0 0 0 0 0 0 0 0 0 0 0 0 0 0 0 0 0
0 0 0 0 0 0 0 0 0 0 0 0 0 0 0 0 0 0 0 0 0 0 0 0 0 0 0 0 0 0 0 0 0 0 0 0 0 0 0 0 0 0 0 0
0 0 0 0 0 0 0 0 0 0 0 0 0 0 0 0 0 0 0 0 0 0 0 0 0 0 0 0 0 0 0 0 0 0 0 0 0 0 0 0 0 0 0 0
0 0 0 0 0 0 0 0 0 0 0 0 0 0 0 0 0 0 0 0 0 0 0 0 0 0 0 0 0 0 0 0 0 0 0 0 0 0 0 0 0 0 0 0
0 0 0 0 0 0 0 0 0 0 0 0 0 0 0 0 0 0 0 0 0 0 0 0 0 0 0 0 0 0 0 0 0 0 0 0 0 0 0 0 0 0 0 0
0 0 0 0 0 0 0 0 0 0 0 0 0 0 0 0 0 0 0 0 0 0 0 0 0 0 0 0 0 0 0 0 0 0 0 0 0 0 0 0 0 0 0 0
Wind_Speed_500mb
6 6 6 9 15 36 37 47 24 40 37 40 29 28 52 51 48 46 42 38 36 31 27 24 22 26 29 34 34 36 39 40 41 44 46 47 48 49 48 47 44 40 36 34
6 8 11 11 24 32 46 35 49 50 45 11 14 37 40 55 56 54 54 49 43 38 33 27 23 27 31 29 27 27 32 36 40 43 45 47 47 46 43 38 37 37 34 32
11 7 11 17 41 51 36 27 43 40 59 10 15 40 56 64 74 71 63 54 51 42 34 28 23 26 26 20 18 23 29 34 38 41 44 45 46 44 41 35 29 30 31 30
4 3 20 5 6 25 46 44 48 34 19 24 26 47 48 63 73 73 63 55 51 43 36 27 24 23 17 11 15 20 26 30 35 39 42 43 43 42 39 36 31 26 25 26
9 13 26 33 17 17 26 32 55 51 47 25 19 21 27 51 57 62 61 52 48 39 33 26 23 19 11 7 11 16 22 27 32 37 41 42 43 43 40 36 30 25 23 24
9 10 16 9 3 14 18 21 38 56 46 45 38 16 20 57 58 58 55 53 49 41 31 26 22 18 11 4 6 11 17 24 30 35 38 41 44 44 41 38 35 29 22 22
22 17 19 11 24 27 13 10 6 47 54 56 26 32 18 49 66 57 57 56 49 39 29 25 23 19 11 6 4 8 14 20 25 31 35 40 41 43 43 41 36 33 27 19
14 16 33 35 20 18 7 6 7 19 45 62 42 34 38 54 67 66 63 58 48 39 31 29 28 22 15 10 4 4 10 16 21 26 32 36 39 41 43 43 39 39 36 29
28 19 8 82 16 57 16 10 15 27 41 60 57 49 53 62 67 64 59 53 45 39 35 34 31 25 20 14 8 1 7 12 16 22 27 32 36 39 42 44 42 41 40 39
8 22 16 50 62 25 37 17 19 29 44 58 63 57 58 61 64 63 60 53 45 43 41 39 35 30 24 19 12 5 2 8 12 17 22 27 31 35 38 42 43 43 45 45
15 13 7 38 66 71 52 39 27 33 46 57 61 65 60 62 62 59 55 50 47 45 43 41 37 32 28 23 16 9 3 5 10 14 18 20 24 30 33 36 39 43 46 46
18 34 38 23 65 73 68 63 46 45 53 58 59 62 59 57 55 54 51 48 50 49 46 43 39 35 31 27 20 14 8 6 9 12 16 19 20 21 26 29 31 34 39 45
14 21 51 35 28 43 82 75 60 55 62 65 61 56 55 56 54 50 46 46 49 47 44 43 41 38 34 30 24 19 13 10 10 12 15 20 25 28 26 22 28 31 34 39
46 27 24 42 24 30 45 63 62 61 63 63 62 59 54 53 52 49 46 45 47 48 46 44 42 39 36 33 28 23 18 15 14 15 17 19 24 28 32 35 34 33 32 36
61 45 28 21 40 27 49 55 66 68 72 71 63 61 60 57 53 47 47 49 49 48 46 46 43 42 39 35 32 27 23 21 20 20 21 22 26 29 32 34 37 36 35 34
56 57 49 33 29 36 43 51 70 79 80 78 73 65 58 52 47 44 48 54 55 52 48 45 42 42 41 38 35 32 28 27 27 27 26 27 29 32 34 35 36 37 36 37
40 44 48 46 46 45 48 51 64 87 87 83 77 67 62 56 50 49 52 51 46 43 42 42 39 45 42 41 38 37 35 33 33 34 33 32 32 34 37 38 36 35 35 34
33 27 36 44 48 50 51 53 63 77 87 84 76 70 65 60 52 50 49 49 49 50 49 43 44 47 46 44 42 42 40 39 39 38 39 37 36 37 38 38 37 36 34 32
34 24 18 22 34 38 47 51 60 67 74 79 76 72 61 54 47 43 45 49 49 50 45 43 45 49 48 46 46 46 44 43 43 42 42 41 41 39 40 39 38 36 35 33
16 23 21 18 22 32 39 45 49 55 60 73 73 67 61 55 48 47 48 48 44 43 41 45 48 48 46 47 50 48 47 46 46 45 45 44 43 42 42 40 39 37 35 33
17 14 17 18 20 25 31 35 41 49 54 63 66 62 56 52 49 49 49 49 45 44 44 47 48 46 45 46 48 48 48 48 48 47 47 46 44 44 42 41 40 38 36 35
14 16 16 16 18 23 28 33 38 41 47 56 59 57 53 50 48 46 46 45 40 41 45 44 45 46 46 46 47 47 45 45 46 46 46 45 45 44 43 43 42 39 38 37
18 16 14 17 18 22 29 33 37 42 47 52 54 48 45 42 41 43 45 42 40 40 41 41 41 42 43 44 45 45 45 45 45 44 43 44 44 44 44 43 41 41 40 39
27 27 23 22 23 25 29 36 38 41 42 43 41 38 36 37 39 41 39 37 38 38 38 39 40 42 43 44 45 45 45 44 44 43 43 44 44 43 43 43 43 42 43 43
32 33 31 30 28 27 27 27 28 31 31 31 33 34 36 37 38 36 36 37 37 37 37 38 39 41 43 44 45 46 47 46 44 43 44 44 45 45 46 46 46 44 45 46
24 25 25 21 20 22 23 22 20 21 23 26 28 29 32 31 33 34 35 36 38 38 40 40 41 43 44 44 45 47 46 46 45 45 46 47 48 48 49 48 48 48 48 49
18 19 17 16 15 13 14 14 17 19 22 24 26 28 30 30 34 36 38 40 40 41 42 41 41 43 45 46 47 48 48 48 48 47 48 48 50 50 50 51 51 50 49 51
Wind_Direction_500mb
235 203 210 234 206 202 207 222 217 254 225 239 201 189 194 189 184 186 190 194 201 204 214 231 260 284 297 306 318 325 333 339 344 345 342 338 331 319 304 292 291 297 303 313
252 208 230 244 244 237 225 228 245 254 263 212 217 196 187 189 187 189 193 203 208 209 218 235 264 285 298 310 326 338 343 346 348 346 344 341 340 336 326 311 293 286 289 295
259 6 313 255 223 225 220 209 222 230 241 147 180 186 193 192 196 199 205 208 211 214 222 239 263 282 293 310 330 343 347 349 350 350 349 347 345 342 338 332 317 298 290 289
285 357 258 314 144 236 226 231 223 247 241 189 193 201 214 215 212 206 210 209 209 212 220 239 259 273 280 301 332 347 352 354 353 354 354 354 352 349 345 339 332 318 304 298
224 200 293 292 213 191 188 238 232 228 233 192 164 175 227 215 214 216 212 208 209 211 219 239 254 255 250 289 335 352 359 356 358 360 359 -0 1 359 356 350 339 329 316 310
158 217 251 60 181 109 131 274 222 214 226 197 155 209 227 205 198 200 202 202 202 208 219 234 237 229 228 269 329 357 5 3 4 5 3 8 8 5 3 358 353 345 329 315
201 229 268 170 159 155 161 257 324 208 208 173 189 215 177 186 192 193 192 194 198 207 217 222 218 214 211 229 304 359 13 10 10 10 9 14 14 11 7 6 1 1 355 333
207 212 254 142 135 194 184 178 235 202 191 181 183 173 167 178 182 183 187 190 197 205 211 209 204 203 200 210 238 4 16 16 15 14 14 17 18 17 14 10 12 11 4 358
192 213 127 175 195 204 183 195 201 186 185 180 177 174 169 170 178 182 187 189 195 203 203 202 201 196 198 203 207 149 17 20 16 17 17 18 20 18 19 15 16 12 9 5
146 214 203 205 215 225 216 212 207 194 182 189 181 177 170 171 176 180 185 190 197 201 199 200 199 195 196 200 199 188 11 8 7 15 19 17 14 17 17 17 16 12 9 5
255 246 264 232 225 225 222 217 209 197 194 188 184 178 178 177 181 184 189 192 200 201 198 200 199 197 197 201 197 196 240 329 344 2 16 16 10 7 11 14 15 10 7 4
215 201 211 235 233 222 221 217 213 204 188 189 191 187 183 185 188 191 193 196 199 197 198 201 199 200 201 202 201 204 220 269 314 339 353 358 1 3 358 0 3 5 7 2
210 214 211 222 218 227 226 218 214 208 198 187 189 195 190 191 192 196 197 201 201 200 199 201 202 203 204 207 206 212 220 249 285 312 333 340 341 342 348 352 348 352 357 359
212 197 200 219 215 215 211 220 210 203 196 195 194 190 194 195 197 201 205 205 199 197 202 203 205 206 208 212 213 219 230 244 267 292 309 321 326 330 333 337 342 346 348 350
219 210 214 211 212 212 209 211 198 198 195 193 196 197 194 197 202 205 202 202 200 200 204 206 207 211 212 217 222 226 236 248 262 277 292 305 313 317 323 327 331 336 340 344
213 215 217 211 203 203 204 201 200 199 198 197 196 194 199 200 202 204 204 205 204 206 208 209 211 216 217 220 229 235 241 252 262 271 281 292 302 308 314 319 323 328 334 338
186 200 206 209 211 213 219 218 211 207 201 201 199 197 196 197 198 204 207 207 206 208 212 213 212 221 223 225 232 242 247 252 260 267 274 282 290 297 303 309 315 320 327 332
221 232 231 232 223 216 215 215 211 211 207 204 200 199 198 200 206 209 209 206 205 210 215 213 214 222 230 231 234 242 250 255 260 264 270 275 281 288 293 300 306 310 317 323
224 228 229 227 227 227 227 217 211 211 208 205 201 202 202 204 205 209 210 210 212 216 217 217 220 224 231 239 243 246 252 257 261 263 266 268 273 278 285 290 296 300 306 312
243 228 224 224 213 210 216 219 218 212 208 204 201 202 200 200 205 209 213 216 219 222 218 222 227 231 235 241 248 253 257 259 261 264 264 266 270 274 278 282 287 291 295 300
232 225 217 213 208 205 205 215 215 208 204 201 201 202 201 203 207 212 215 217 216 217 219 223 231 236 239 244 250 253 255 259 261 263 264 265 267 270 273 276 280 283 286 290
185 194 198 197 195 195 193 194 195 199 197 194 196 199 201 206 211 214 217 223 220 222 228 232 237 241 245 249 252 254 256 259 261 262 263 265 266 268 271 273 276 278 280 284
128 142 161 172 178 182 182 181 183 185 187 187 193 196 205 214 218 219 222 223 225 228 234 239 243 246 250 253 254 256 257 259 260 261 262 264 266 268 270 272 273 275 277 280
104 109 115 122 137 152 164 164 169 173 176 183 191 200 210 213 216 221 225 228 232 233 236 241 246 250 253 255 256 258 258 258 259 261 263 265 266 268 269 271 272 274 276 279
104 107 112 118 123 132 144 156 170 175 181 191 198 204 211 216 223 227 231 235 239 243 246 248 249 251 253 256 257 258 259 261 262 263 263 265 268 269 270 271 272 273 274 277
107 109 110 116 126 139 149 164 181 190 200 203 213 217 224 222 230 234 238 242 246 249 252 253 254 257 258 259 261 261 262 263 263 264 266 268 269 270 271 272 272 272 273 274
101 105 116 127 135 155 167 184 194 205 217 217 220 227 233 236 239 242 246 249 251 253 255 256 257 257 259 260 261 262 263 264 266 267 268 269 270 271 271 271 271 271 271 273
Wind_Speed_850mb
6 6 6 9 15 36 37 47 24 40 37 40 29 28 52 51 48 46 42 38 36 31 27 24 22 26 29 34 34 36 39 40 41 44 46 47 48 49 48 47 44 40 36 34
6 8 11 11 24 32 46 35 49 50 45 11 14 37 40 55 56 54 54 49 43 38 33 27 23 27 31 29 27 27 32 36 40 43 45 47 47 46 43 38 37 37 34 32
11 7 11 17 41 51 36 27 43 40 59 10 15 40 56 64 74 71 63 54 51 42 34 28 23 26 26 20 18 23 29 34 38 41 44 45 46 44 41 35 29 30 31 30
4 3 20 5 6 25 46 44 48 34 19 24 26 47 48 63 73 73 63 55 51 43 36 27 24 23 17 11 15 20 26 30 35 39 42 43 43 42 39 36 31 26 25 26
9 13 26 33 17 17 26 32 55 51 47 25 19 21 27 51 57 62 61 52 48 39 33 26 23 19 11 7 11 16 22 27 32 37 41 42 43 43 40 36 30 25 23 24
9 10 16 9 3 14 18 21 38 56 46 45 38 16 20 57 58 58 55 53 49 41 31 26 22 18 11 4 6 11 17 24 30 35 38 41 44 44 41 38 35 29 22 22
22 17 19 11 24 27 13 10 6 47 54 56 26 32 18 49 66 57 57 56 49 39 29 25 23 19 11 6 4 8 14 20 25 31 35 40 41 43 43 41 36 33 27 19
14 16 33 35 20 18 7 6 7 19 45 62 42 34 38 54 67 66 63 58 48 39 31 29 28 22 15 10 4 4 10 16 21 26 32 36 39 41 43 43 39 39 36 29
28 19 8 82 16 57 16 10 15 27 41 60 57 49 53 62 67 64 59 53 45 39 35 34 31 25 20 14 8 1 7 12 16 22 27 32 36 39 42 44 42 41 40 39
8 22 16 50 62 25 37 17 19 29 44 58 63 57 58 61 64 63 60 53 45 43 41 39 35 30 24 19 12 5 2 8 12 17 22 27 31 35 38 42 43 43 45 45
15 13 7 38 66 71 52 39 27 33 46 57 61 65 60 62 62 59 55 50 47 45 43 41 37 32 28 23 16 9 3 5 10 14 18 20 24 30 33 36 39 43 46 46
18 34 38 23 65 73 68 63 46 45 53 58 59 62 59 57 55 54 51 48 50 49 46 43 39 35 31 27 20 14 8 6 9 12 16 19 20 21 26 29 31 34 39 45
14 21 51 35 28 43 82 75 60 55 62 65 61 56 55 56 54 50 46 46 49 47 44 43 41 38 34 30 24 19 13 10 10 12 15 20 25 28 26 22 28 31 34 39
46 27 24 42 24 30 45 63 62 61 63 63 62 59 54 53 52 49 46 45 47 48 46 44 42 39 36 33 28 23 18 15 14 15 17 19 24 28 32 35 34 33 32 36
61 45 28 21 40 27 49 55 66 68 72 71 63 61 60 57 53 47 47 49 49 48 46 46 43 42 39 35 32 27 23 21 20 20 21 22 26 29 32 34 37 36 35 34
56 57 49 33 29 36 43 51 70 79 80 78 73 65 58 52 47 44 48 54 55 52 48 45 42 42 41 38 35 32 28 27 27 27 26 27 29 32 34 35 36 37 36 37
40 44 48 46 46 45 48 51 64 87 87 83 77 67 62 56 50 49 52 51 46 43 42 42 39 45 42 41 38 37 35 33 33 34 33 32 32 34 37 38 36 35 35 34
33 27 36 44 48 50 51 53 63 77 87 84 76 70 65 60 52 50 49 49 49 50 49 43 44 47 46 44 42 42 40 39 39 38 39 37 36 37 38 38 37 36 34 32
34 24 18 22 34 38 47 51 60 67 74 79 76 72 61 54 47 43 45 49 49 50 45 43 45 49 48 46 46 46 44 43 43 42 42 41 41 39 40 39 38 36 35 33
16 23 21 18 22 32 39 45 49 55 60 73 73 67 61 55 48 47 48 48 44 43 41 45 48 48 46 47 50 48 47 46 46 45 45 44 43 42 42 40 39 37 35 33
17 14 17 18 20 25 31 35 41 49 54 63 66 62 56 52 49 49 49 49 45 44 44 47 48 46 45 46 48 48 48 48 48 47 47 46 44 44 42 41 40 38 36 35
14 16 16 16 18 23 28 33 38 41 47 56 59 57 53 50 48 46 46 45 40 41 45 44 45 46 46 46 47 47 45 45 46 46 46 45 45 44 43 43 42 39 38 37
18 16 14 17 18 22 29 33 37 42 47 52 54 48 45 42 41 43 45 42 40 40 41 41 41 42 43 44 45 45 45 45 45 44 43 44 44 44 44 43 41 41 40 39
27 27 23 22 23 25 29 36 38 41 42 43 41 38 36 37 39 41 39 37 38 38 38 39 40 42 43 44 45 45 45 44 44 43 43 44 44 43 43 43 43 42 43 43
32 33 31 30 28 27 27 27 28 31 31 31 33 34 36 37 38 36 36 37 37 37 37 38 39 41 43 44 45 46 47 46 44 43 44 44 45 45 46 46 46 44 45 46
24 25 25 21 20 22 23 22 20 21 23 26 28 29 32 31 33 34 35 36 38 38 40 40 41 43 44 44 45 47 46 46 45 45 46 47 48 48 49 48 48 48 48 49
18 19 17 16 15 13 14 14 17 19 22 24 26 28 30 30 34 36 38 40 40 41 42 41 41 43 45 46 47 48 48 48 48 47 48 48 50 50 50 51 51 50 49 51
Wind_Direction_850mb
235 203 210 234 206 202 207 222 217 254 225 239 201 189 194 189 184 186 190 194 201 204 214 231 260 284 297 306 318 325 333 339 344 345 342 338 331 319 304 292 291 297 303 313
252 208 230 244 244 237 225 228 245 254 263 212 217 196 187 189 187 189 193 203 208 209 218 235 264 285 298 310 326 338 343 346 348 346 344 341 340 336 326 311 293 286 289 295
259 6 313 255 223 225 220 209 222 230 241 147 180 186 193 192 196 199 205 208 211 214 222 239 263 282 293 310 330 343 347 349 350 350 349 347 345 342 338 332 317 298 290 289
285 357 258 314 144 236 226 231 223 247 241 189 193 201 214 215 212 206 210 209 209 212 220 239 259 273 280 301 332 347 352 354 353 354 354 354 352 349 345 339 332 318 304 298
224 200 293 292 213 191 188 238 232 228 233 192 164 175 227 215 214 216 212 208 209 211 219 239 254 255 250 289 335 352 359 356 358 360 359 -0 1 359 356 350 339 329 316 310
158 217 251 60 181 109 131 274 222 214 226 197 155 209 227 205 198 200 202 202 202 208 219 234 237 229 228 269 329 357 5 3 4 5 3 8 8 5 3 358 353 345 329 315
201 229 268 170 159 155 161 257 324 208 208 173 189 215 177 186 192 193 192 194 198 207 217 222 218 214 211 229 304 359 13 10 10 10 9 14 14 11 7 6 1 1 355 333
207 212 254 142 135 194 184 178 235 202 191 181 183 173 167 178 182 183 187 190 197 205 211 209 204 203 200 210 238 4 16 16 15 14 14 17 18 17 14 10 12 11 4 358
192 213 127 175 195 204 183 195 201 186 185 180 177 174 169 170 178 182 187 189 195 203 203 202 201 196 198 203 207 149 17 20 16 17 17 18 20 18 19 15 16 12 9 5
146 214 203 205 215 225 216 212 207 194 182 189 181 177 170 171 176 180 185 190 197 201 199 200 199 195 196 200 199 188 11 8 7 15 19 17 14 17 17 17 16 12 9 5
255 246 264 232 225 225 222 217 209 197 194 188 184 178 178 177 181 184 189 192 200 201 198 200 199 197 197 201 197 196 240 329 344 2 16 16 10 7 11 14 15 10 7 4
215 201 211 235 233 222 221 217 213 204 188 189 191 187 183 185 188 191 193 196 199 197 198 201 199 200 201 202 201 204 220 269 314 339 353 358 1 3 358 0 3 5 7 2
210 214 211 222 218 227 226 218 214 208 198 187 189 195 190 191 192 196 197 201 201 200 199 201 202 203 204 207 206 212 220 249 285 312 333 340 341 342 348 352 348 352 357 359
212 197 200 219 215 215 211 220 210 203 196 195 194 190 194 195 197 201 205 205 199 197 202 203 205 206 208 212 213 219 230 244 267 292 309 321 326 330 333 337 342 346 348 350
219 210 214 211 212 212 209 211 198 198 195 193 196 197 194 197 202 205 202 202 200 200 204 206 207 211 212 217 222 226 236 248 262 277 292 305 313 317 323 327 331 336 340 344
213 215 217 211 203 203 204 201 200 199 198 197 196 194 199 200 202 204 204 205 204 206 208 209 211 216 217 220 229 235 241 252 262 271 281 292 302 308 314 319 323 328 334 338
186 200 206 209 211 213 219 218 211 207 201 201 199 197 196 197 198 204 207 207 206 208 212 213 212 221 223 225 232 242 247 252 260 267 274 282 290 297 303 309 315 320 327 332
221 232 231 232 223 216 215 215 211 211 207 204 200 199 198 200 206 209 209 206 205 210 215 213 214 222 230 231 234 242 250 255 260 264 270 275 281 288 293 300 306 310 317 323
224 228 229 227 227 227 227 217 211 211 208 205 201 202 202 204 205 209 210 210 212 216 217 217 220 224 231 239 243 246 252 257 261 263 266 268 273 278 285 290 296 300 306 312
243 228 224 224 213 210 216 219 218 212 208 204 201 202 200 200 205 209 213 216 219 222 218 222 227 231 235 241 248 253 257 259 261 264 264 266 270 274 278 282 287 291 295 300
232 225 217 213 208 205 205 215 215 208 204 201 201 202 201 203 207 212 215 217 216 217 219 223 231 236 239 244 250 253 255 259 261 263 264 265 267 270 273 276 280 283 286 290
185 194 198 197 195 195 193 194 195 199 197 194 196 199 201 206 211 214 217 223 220 222 228 232 237 241 245 249 252 254 256 259 261 262 263 265 266 268 271 273 276 278 280 284
128 142 161 172 178 182 182 181 183 185 187 187 193 196 205 214 218 219 222 223 225 228 234 239 243 246 250 253 254 256 257 259 260 261 262 264 266 268 270 272 273 275 277 280
104 109 115 122 137 152 164 164 169 173 176 183 191 200 210 213 216 221 225 228 232 233 236 241 246 250 253 255 256 258 258 258 259 261 263 265 266 268 269 271 272 274 276 279
104 107 112 118 123 132 144 156 170 175 181 191 198 204 211 216 223 227 231 235 239 243 246 248 249 251 253 256 257 258 259 261 262 263 263 265 268 269 270 271 272 273 274 277
107 109 110 116 126 139 149 164 181 190 200 203 213 217 224 222 230 234 238 242 246 249 252 253 254 257 258 259 261 261 262 263 263 264 266 268 269 270 271 272 272 272 273 274
101 105 116 127 135 155 167 184 194 205 217 217 220 227 233 236 239 242 246 249 251 253 255 256 257 257 259 260 261 262 263 264 266 267 268 269 270 271 271 271 271 271 271 273